Regional Weather Roundup
Issued by NWS

Home | Current Version | Previous Version | Graphics & Text | Print | Product List | Glossary On
Versions: 1 2 3 4 5 6 7 8 9 10 11 12 13 14 15 16 17 18 19 20 21 22 23 24 25 26 27 28 29 30 31 32 33 34 35 36 37 38 39 40 41 42 43 44 45 46 47 48 49 50
000
ASUS43 KDMX 210101
RWRIA

WEATHER ROUNDUP FOR IOWA
NATIONAL WEATHER SERVICE DES MOINES IA
700 PM CST FRI JAN 20 2017

NOTE: "FAIR" INDICATES FEW OR NO CLOUDS BELOW 12,000 FEET WITH NO
SIGNIFICANT WEATHER AND/OR OBSTRUCTIONS TO VISIBILITY.

* - THESE STATIONS ARE NOT NWS STATIONS...THUS NOT UNDER NWS
QUALITY CONTROL.  THEY ALSO DO NOT REPORT WEATHER SUCH
AS PRECIPITATION OR FOG.

IAZ001>003-012>014-020>022-031>034-043>046-210200-
   NORTHWEST IOWA

CITY           SKY/WX    TMP DP  RH WIND       PRES   REMARKS
CARROLL *      MIX PCPN  37  37 100 E7        29.49S VSB<1/4 WCI  32
CHEROKEE *     CLOUDY    37  37 100 SE5       29.48S WCI  34
DENISON *      CLOUDY    39  39 100 E9        29.45F FOG     WCI  33
LE MARS *      CLOUDY    39  39 100 SE7       29.47S WCI  34
ORANGE CITY *  CLOUDY    37  37 100 SE5       29.46F FOG     WCI  34
SHELDON *      CLOUDY    37  37 100 SE12      29.46S WCI  30
SIOUX CITY     CLOUDY    40  39  97 SE9       29.46S FOG     WCI  34
SPENCER        CLOUDY    36  36 100 SE7       29.50S FOG     WCI  30
STORM LAKE *   FOG       36  36 100 SE8       29.48S VSB<1/4 WCI  29
$$

IAZ055>058-069>071-079>083-090>094-210200-
   SOUTHWEST IOWA

CITY           SKY/WX    TMP DP  RH WIND       PRES   REMARKS
ATLANTIC *     CLOUDY    41  41 100 E10       29.47S FOG
AUDUBON *      FOG       39  37  93 SE3       29.49S VSB 1/2
CLARINDA *     CLOUDY    43  43 100 SE5       29.49S FOG
COUNCIL BLFS * CLOUDY    41  41 100 SE6       29.46R FOG
CRESTON *      FOG       41  41 100 E12       29.49S VSB 1/2
HARLAN  *      MIX PCPN  39  39 100 E5        29.50S
LAMONI         FOG       44  43  96 E6        29.48R VSB 1/4
RED OAK *      CLOUDY    43  41  93 SE6       29.47S
SHENANDOAH *   FOG       43  43 100 E6        29.47S VSB 1
$$

IAZ047>049-059>061-072>074-084-210200-
   CENTRAL IOWA

CITY           SKY/WX    TMP DP  RH WIND       PRES   REMARKS
AMES           FOG       38  38 100 SE8       29.52F VSB 1/2 WCI  32
ANKENY *       FOG       39  39 100 SE8       29.54S VSB 1/4 WCI  34
BOONE *        FOG       37  37 100 E8        29.50F VSB<1/4 WCI  31
CHARITON *     FOG       41  41 100 E9        29.51R VSB 1/4
DES MOINES     DRZL/FOG  40  39  97 E9        29.52F VSB 1/2 WCI  34
GRINNELL*      FOG       38  37  99 E7        29.54S VSB 1/4 WCI  32
KNOXVILLE *    FOG       41  41 100 E7        29.51F VSB<1/4
MARSHALLTOWN   FOG       37  37 100 E9        29.54S VSB 1/2 WCI  30
NEWTON *       FOG       39  37  93 E8        29.53S VSB<1/4 WCI  34
PELLA *        FOG       41  40  99 E5        29.54F VSB 1/4
PERRY *        FOG       39  38  98 E8        29.51S VSB 3/4 WCI  33
$$

IAZ004>006-015-016-023>025-035-036-210200-
   NORTH CENTRAL IOWA

CITY           SKY/WX    TMP DP  RH WIND       PRES   REMARKS
ALGONA *       FOG       36  36 100 SE9       29.52F VSB 1/4 WCI  29
CLARION *      FOG       36  36 100 E10       29.53S VSB 1/4 WCI  28
ESTHERVILLE    FOG       34  34 100 SE8       29.51R VSB 3/4 WCI  27
FORT DODGE *   CLOUDY    36  34  93 E8        29.51F VSB 1/2 WCI  29
MASON CITY     FOG       34  34 100 SE7       29.56R VSB 1/4 WCI  28
FOREST CITY *  FOG       34  34 100 SE8       29.54F VSB 1/4 WCI  27
WEBSTER CITY * FOG       37 N/A N/A SE9       29.50S VSB 1/4 WCI  31
IOWA FALLS *   FOG       37  36  97 NE6       29.54F VSB 1/4 WCI  32
$$

IAZ007>011-017>019-026>030-037>042-050>054-066-210200-
   NORTHEAST IOWA

CITY           SKY/WX    TMP DP  RH WIND       PRES   REMARKS
CEDAR RAPIDS   FOG       39  38  96 E6        29.56F VSB 1/4 WCI  35
CHARLES CITY * FOG       34  34 100 E8        29.58R VSB 1/4 WCI  27
CLINTON *      LGT RAIN  39  39 100 E9        29.61R VSB 1/4 WCI  33
DECORAH *      FOG       36  36 100 SE5       29.58R VSB 1/2 WCI  32
DUBUQUE        FOG       37  36  96 CALM      29.60R VSB<1/4
MONTICELLO *   FOG       37  37 100 E5        29.59S VSB<1/4 WCI  34
OELWEIN *      FOG       36  36 100 E8        29.57F VSB<1/4 WCI  29
WATERLOO       FOG       36  35  96 E5        29.57R VSB 1/4 WCI  32
$$

IAZ064-065-067-068-078-210200-
   EAST CENTRAL IOWA

CITY           SKY/WX    TMP DP  RH WIND       PRES   REMARKS
DAVENPORT      FOG       41  40  96 E8        29.60R VSB 1/4
IOWA CITY      FOG       42  41  96 E6        29.58F VSB 3/4
MUSCATINE *    FOG       45  43  93 E6        29.58S VSB 3/4
QUAD CITIES    FOG       43  41  93 E7        29.59S VSB 3/4
$$

IAZ062-063-075>077-085>089-095>099-210200-
   SOUTHEAST IOWA

CITY           SKY/WX    TMP DP  RH WIND       PRES   REMARKS
BURLINGTON     FOG       44  44 100 E6        29.55F VSB 1/4
FAIRFIELD *    FOG       43  43 100 E7        29.54F VSB<1/4
FORT MADISON * FOG       45  45 100 E6        29.56F VSB 1/4
KEOKUK *       CLOUDY    46 N/A N/A SE7       29.54F FOG
OSKALOOSA *    FOG       40  40  99 E7        29.54S VSB 1/4
OTTUMWA        FOG       42  41  96 E7        29.53F VSB 1/2
WASHINGTON *   FOG       41  41 100 E8        29.57F VSB<1/4
$$

ABBREVIATIONS USED IN REMARKS
   TC - TEMPERATURES IN CELSIUS
  WCI - WIND CHILL INDEX
   HX - HEAT INDEX
  VSB - VISIBILITY
$$





USA.gov is the U.S. government's official web portal to all federal, state and local government web resources and services.